Location: Vancouver
(49.2500°N, 123.1330°W)
Time: 19:16:40
(UTC-08:00)

Cosmos 2333 Rocket - Visible Passes

Search period start: 17 February 2018 00:00
Search period end: 27 February 2018 00:00
Orbit: 839 x 863 km, 70.8° (Epoch: 17 February)

Date Brightness Start Highest point End Pass type
(mag) Time Alt. Az. Time Alt. Az. Time Alt. Az.
17 Feb 3.4 18:58:47 10° NW 19:04:10 45° WSW 19:09:31 10° S visible
18 Feb 3.4 18:46:29 10° NW 18:51:53 45° WSW 18:57:13 10° S visible
19 Feb 3.5 18:34:12 10° NW 18:39:36 45° WSW 18:44:55 10° S visible
20 Feb 3.5 18:21:54 10° NW 18:27:18 45° WSW 18:32:38 10° S visible
21 Feb 3.6 18:09:37 10° NW 18:15:00 45° WSW 18:20:20 10° S visible
